This is the latest recevied weather packets stored in our database for station/object DC4XK-10. If no packets are shown the sender has not sent any weather packets the latest 10 day(s).
| Time | Temp. | Humidity | Pressure | Rain* | Wind** | Luminosity | Snow |
|---|---|---|---|---|---|---|---|
| 1777809531 | 23.89° C | 60% | 1008.9 hPa | 0 mm | 1.79 m/s, 170° | - | - |
| 1777808931 | 24.44° C | 60% | 1008.9 hPa | 0 mm | 0.89 m/s, 240° | - | - |
| 1777808331 | 24.44° C | 62% | 1009.1 hPa | 0 mm | 0 m/s | - | - |
| 1777807731 | 22.78° C | 63% | 1009.2 hPa | 0 mm | 0.45 m/s, 223° | - | - |
| 1777807131 | 22.22° C | 66% | 1009.1 hPa | 0 mm | 0.89 m/s, 191° | - | - |
| 1777806531 | 22.22° C | 66% | 1009.4 hPa | 0 mm | 0.89 m/s, 278° | - | - |
| 1777805931 | 21.67° C | 66% | 1009.4 hPa | 0 mm | 0 m/s | - | - |
| 1777805331 | 21.67° C | 67% | 1009.4 hPa | 0 mm | 1.34 m/s, 129° | - | - |
| 1777804732 | 20.56° C | 72% | 1009.6 hPa | 0 mm | 0.45 m/s, 268° | - | - |
| 1777804131 | 20° C | 76% | 1009.8 hPa | 0 mm | 0.45 m/s, 175° | - | - |
| 1777803530 | 20° C | 76% | 1010 hPa | 0 mm | 0.89 m/s, 194° | - | - |
| 1777802932 | 19.44° C | 76% | 1009.7 hPa | 0 mm | 0.45 m/s, 205° | - | - |
| 1777802331 | 18.89° C | 78% | 1009.9 hPa | 0 mm | 0 m/s | - | - |
| 1777801731 | 18.33° C | 80% | 1009.7 hPa | 0 mm | 0.45 m/s, 113° | - | - |
| 1777801133 | 18.33° C | 82% | 1010.2 hPa | 0 mm | 0 m/s | - | - |
| 1777800531 | 18.33° C | 82% | 1010.4 hPa | 0 mm | 0 m/s | - | - |
| 1777799930 | 18.33° C | 81% | 1010.2 hPa | 0 mm | 0 m/s | - | - |
| 1777799333 | 17.78° C | 83% | 1010.3 hPa | 0 mm | 0 m/s | - | - |
| 1777798731 | 17.78° C | 84% | 1010 hPa | 0 mm | 0.45 m/s, 215° | - | - |
| 1777798131 | 17.78° C | 84% | 1010.1 hPa | 0 mm | 0 m/s | - | - |
| 1777797533 | 17.78° C | 83% | 1010.2 hPa | 0 mm | 1.79 m/s, 192° | - | - |
| 1777796931 | 17.78° C | 85% | 1010.2 hPa | 0 mm | 1.34 m/s, 180° | - | - |
| 1777796331 | 17.22° C | 86% | 1010.3 hPa | 0 mm | 0 m/s | - | - |
| 1777795730 | 16.67° C | 89% | 1010.3 hPa | 0 mm | 0 m/s | - | - |
| 1777795131 | 16.11° C | 89% | 1010.3 hPa | 0 mm | 0.45 m/s, 202° | - | - |
* Rain latest hour (hover to see other rain measurements)
** Current wind speed in m/s (hover to see current wind gust speed)